RH
62 71 78 83 84 44 50 55 57 56 50 64 49 33 31 33 74 40 29 23 20 19 20 19 17 15 14 17 16 17 15 16 17 16 14 19 26 23 23 23 25 26 28
66 69 45 61 87 92 53 56 56 64 57 64 76 52 32 29 29 40 20 24 21 18 18 19 20 18 16 16 16 16 14 14 15 15 14 17 18 18 19 20 22 27 32
38 31 27 50 69 83 78 77 64 58 78 63 80 74 55 34 31 30 27 21 23 18 19 18 20 19 20 18 15 14 14 14 13 14 15 19 19 19 19 19 22 26 27
100 58 44 47 51 65 93 87 76 66 78 79 65 76 72 49 39 31 30 27 24 22 19 18 20 21 21 20 19 18 16 14 13 14 15 18 17 18 20 20 22 20 21
96 96 56 65 52 44 83 89 83 65 67 87 64 80 84 74 46 34 27 33 24 23 24 21 18 21 21 23 22 20 18 13 15 17 16 18 17 19 19 20 22 18 21
100 100 62 65 65 57 55 73 81 82 60 86 86 82 91 78 69 48 41 28 28 28 28 22 22 23 21 22 20 20 18 15 15 18 18 17 18 17 18 20 20 18 22
100 100 71 45 57 62 68 71 68 94 72 74 91 93 90 88 69 69 57 61 38 33 28 30 24 24 23 24 29 29 29 21 18 17 20 26 25 21 18 18 19 18 20
93 88 71 46 60 61 71 58 62 96 92 60 75 82 72 84 72 62 62 65 67 49 39 30 30 27 24 24 27 29 29 29 27 28 26 30 31 20 18 18 18 17 19
100 98 84 60 72 79 67 58 56 69 84 53 64 78 81 71 76 62 60 65 72 72 69 52 55 44 32 30 27 30 31 29 30 28 26 26 27 22 17 15 16 17 18
100 100 94 89 60 86 89 73 52 64 58 84 69 79 93 98 68 60 60 54 62 66 73 69 52 55 41 35 39 35 31 30 32 34 28 25 22 22 16 15 14 15 16
99 100 91 76 99 84 74 75 69 64 62 62 70 60 59 100 91 70 71 62 63 63 63 78 56 38 53 57 53 43 37 38 32 24 22 23 24 21 15 15 14 14 16
100 100 100 87 58 78 95 62 63 68 86 63 61 50 63 97 99 90 65 65 73 80 64 54 47 46 34 35 47 51 37 31 27 20 23 22 23 20 16 14 14 14 15
100 100 100 100 73 77 100 82 60 62 79 88 80 59 61 76 100 100 81 61 67 74 74 69 70 68 45 33 28 28 28 30 23 23 18 20 15 14 14 15 15 18 20
100 100 100 100 100 69 99 100 87 100 91 99 98 81 53 69 100 100 100 77 50 62 88 77 72 77 64 46 31 23 23 19 21 23 19 17 16 13 15 15 14 14 19
100 100 100 100 100 100 97 100 100 86 100 94 90 52 42 51 64 83 100 100 81 59 76 68 75 64 57 43 37 34 21 18 17 18 18 16 15 16 16 16 16 17 17
99 100 100 100 97 100 79 100 100 100 94 61 68 95 46 51 53 40 87 100 97 89 72 61 47 39 35 39 35 30 25 21 16 15 15 14 14 16 17 19 21 16 16
46 100 100 100 100 86 83 100 100 81 100 100 99 85 68 59 70 56 57 54 78 70 50 48 44 47 42 31 30 28 26 20 17 15 13 13 14 15 17 17 20 17 16
14 60 100 100 100 96 100 100 100 100 100 100 100 73 63 63 62 100 68 62 64 60 43 36 30 39 32 29 28 26 17 16 13 16 21 18 15 15 17 22 21 19 18
8 14 61 100 100 100 100 100 100 100 100 100 72 86 99 69 52 100 99 83 74 68 50 38 42 41 39 32 25 27 21 19 14 13 17 20 18 18 18 21 25 26 22
7 8 17 75 100 100 100 100 100 100 100 100 100 100 100 100 100 79 100 100 69 58 56 50 45 45 53 46 31 32 24 20 17 13 12 15 18 18 20 22 22 25 30
8 8 9 14 93 100 100 100 100 100 100 100 100 100 100 100 100 90 100 96 100 80 57 56 61 60 67 62 41 30 30 27 24 17 12 13 15 23 23 23 27 29 27
10 8 8 9 18 99 100 100 100 100 100 100 100 100 100 100 100 100 86 99 92 100 94 72 84 69 79 80 72 44 40 34 34 23 16 14 19 23 28 26 25 28 32
12 10 8 8 9 27 96 100 100 100 100 99 100 100 100 100 100 100 100 100 100 100 97 91 89 100 72 64 78 54 59 50 39 33 24 17 21 21 33 34 34 30 31
14 12 9 8 7 8 15 71 100 100 100 91 92 100 100 100 100 100 100 100 100 95 100 98 100 100 90 97 76 62 55 50 53 31 28 30 31 29 25 29 32 30 28
15 14 12 9 8 8 7 8 25 100 100 100 100 87 95 100 100 100 100 100 100 100 100 100 100 100 91 80 78 67 69 68 43 32 49 59 60 32 27 27 33 32 30
18 16 13 11 10 9 8 7 8 9 80 100 100 100 100 100 100 100 100 100 100 100 100 100 100 100 100 92 78 70 66 60 44 37 23 25 31 24 26 33 24 28 26
Wind_Speed
59 50 45 43 41 38 35 33 33 32 30 26 23 18 15 15 16 18 19 17 14 11 11 10 7 6 6 6 5 4 9 7 10 13 18 20 22 26 29 30 31 36 40
58 49 50 49 47 42 40 38 36 34 35 33 28 21 18 15 20 18 17 17 12 9 8 6 8 4 3 6 8 7 7 8 8 12 15 16 20 23 26 27 30 33 35
66 61 57 54 50 46 44 40 40 39 40 38 30 29 24 20 19 20 19 17 15 11 7 8 7 5 3 4 5 5 7 5 6 11 15 14 18 23 24 25 28 31 33
61 62 58 56 54 49 48 40 40 39 42 40 36 35 27 25 24 24 22 20 20 14 9 9 7 5 4 4 3 2 2 2 5 10 12 13 18 20 22 23 26 29 33
70 66 63 62 59 57 53 49 42 41 42 42 43 39 35 29 29 26 24 23 24 21 15 11 12 8 6 4 2 3 2 3 2 9 10 13 17 20 20 21 24 29 31
76 78 70 68 65 66 61 52 53 47 41 46 45 44 39 34 31 31 26 25 25 22 21 18 16 13 11 6 3 4 3 3 3 6 8 13 16 19 19 17 22 27 28
83 82 73 69 68 69 68 62 58 55 50 47 45 48 46 40 36 35 33 29 28 25 25 22 20 18 16 12 11 10 7 4 6 8 9 13 16 17 17 18 21 24 27
90 82 76 74 73 72 72 68 63 62 58 52 49 46 41 44 41 39 34 34 32 29 28 25 22 25 22 20 18 17 17 15 11 13 14 18 18 15 15 17 20 21 25
88 86 79 78 76 73 76 72 67 63 62 60 57 53 48 45 45 42 39 38 36 33 33 29 27 25 27 26 24 23 21 19 19 18 18 17 20 16 15 17 19 20 21
90 89 83 80 79 78 79 76 72 68 66 63 62 57 54 50 47 44 42 40 41 37 36 35 32 30 28 30 26 26 25 24 22 23 21 21 20 17 14 15 19 20 21
97 97 92 87 82 83 83 79 74 75 71 71 68 65 60 57 51 46 44 45 42 38 40 38 36 32 33 32 31 30 30 28 26 22 22 19 18 18 18 17 19 18 21
100 99 96 93 90 87 87 83 79 78 78 76 72 68 66 60 59 53 49 48 50 46 43 40 39 38 39 38 37 34 33 30 27 25 23 23 24 24 22 17 19 19 24
108 103 98 96 93 91 89 84 81 80 81 84 79 74 68 66 66 62 56 54 55 53 50 48 44 42 43 40 40 36 32 33 29 29 29 30 26 22 25 29 30 28 31
106 105 104 97 93 94 93 86 84 86 91 87 86 82 73 73 70 72 62 60 60 60 57 54 49 48 46 46 45 43 41 39 35 36 32 28 27 25 29 30 32 32 30
109 110 106 106 103 100 95 94 97 92 88 91 89 87 83 81 78 76 72 68 67 65 60 59 56 56 52 50 50 48 43 40 40 39 36 34 29 32 33 32 37 37 39
115 113 105 114 109 106 98 99 100 94 90 87 89 93 90 84 85 82 81 76 72 71 68 66 63 61 59 56 52 50 51 47 42 39 37 37 36 39 36 35 39 42 41
120 122 108 112 110 107 104 101 106 105 98 89 95 96 91 86 88 88 87 82 81 79 78 75 68 65 63 62 61 57 56 54 52 46 43 40 39 37 38 40 41 45 47
124 124 118 117 111 111 111 103 107 108 106 105 94 98 98 91 89 100 95 90 87 85 84 80 77 72 72 70 68 64 61 61 60 59 56 50 49 44 44 46 45 49 52
123 123 126 118 112 114 114 110 112 111 112 114 109 103 101 99 98 98 101 95 92 93 86 86 81 77 78 75 74 71 69 68 63 61 59 59 55 50 50 48 51 52 53
118 126 126 123 125 116 120 120 118 117 116 114 111 107 105 102 103 102 103 103 99 99 91 91 89 85 84 82 80 77 74 75 71 70 60 55 58 57 55 57 57 59 57
118 123 126 126 125 126 111 122 122 123 121 118 114 111 112 109 109 107 106 104 104 106 99 97 93 92 90 88 86 83 77 79 79 77 74 66 62 64 64 66 63 66 64
114 118 124 125 127 126 120 120 127 126 123 123 120 115 111 110 111 112 109 112 107 107 108 103 96 94 94 95 90 88 86 82 82 82 78 76 73 70 71 68 69 69 69
113 113 119 125 126 129 129 122 128 127 127 128 125 121 118 117 113 112 114 112 110 109 109 110 101 99 101 102 94 96 91 89 89 86 83 83 80 79 76 76 75 76 77
113 114 115 119 125 130 130 128 123 127 129 132 129 126 124 122 119 116 112 116 112 114 114 110 109 108 105 103 101 101 99 95 95 94 91 88 88 87 85 82 81 79 82
114 114 115 117 120 126 131 131 126 125 125 129 128 129 129 129 127 123 118 114 109 108 108 111 111 113 113 112 112 108 111 104 101 98 96 93 96 92 95 91 88 87 87
113 114 114 116 118 120 124 131 132 127 126 126 125 130 134 135 131 127 126 122 119 119 119 115 115 115 119 118 117 117 116 116 112 103 106 99 100 97 99 96 96 91 91
Wind_Direction
232 234 237 231 233 227 215 214 212 207 212 239 247 223 221 214 210 203 208 211 213 215 231 232 207 207 232 224 311 300 316 337 16 23 27 36 37 30 28 30 29 28 26
228 235 242 238 234 233 224 219 213 215 210 224 239 237 227 231 207 213 209 215 216 214 216 202 212 198 226 245 275 292 297 317 342 9 17 26 26 24 20 29 31 29 28
228 236 235 238 230 236 231 226 222 218 223 231 232 238 231 231 229 204 218 221 215 208 194 206 206 198 209 239 236 272 301 309 325 353 3 18 16 13 21 26 27 28 22
232 228 231 238 235 232 233 226 225 227 227 231 228 231 231 227 238 233 223 226 227 222 184 194 204 190 197 206 196 223 275 250 275 346 351 8 2 6 14 23 30 23 11
232 228 232 235 239 241 233 234 224 226 234 228 229 229 234 232 227 238 238 234 227 235 204 195 208 218 227 220 234 217 182 259 353 353 360 353 358 359 5 18 16 9 14
230 228 233 233 236 241 240 235 236 229 229 230 228 230 233 232 233 231 236 233 230 225 232 230 223 247 242 259 264 286 255 214 295 338 347 344 349 348 351 1 5 7 11
226 228 229 231 232 237 238 235 236 233 228 229 231 232 232 231 233 234 233 234 236 236 232 230 230 238 252 248 270 288 303 270 292 308 330 339 345 345 345 345 352 357 360
227 228 226 229 229 234 236 237 236 232 233 231 229 224 228 232 230 234 231 232 235 238 241 244 242 243 248 254 259 265 275 287 288 300 301 309 321 326 333 338 339 346 357
227 229 225 226 228 232 235 236 234 233 234 236 232 232 236 239 230 232 234 231 232 237 240 243 253 256 249 253 258 263 271 274 283 293 288 296 306 314 318 320 328 343 350
227 226 223 224 227 232 232 235 236 232 235 232 234 236 240 243 241 233 233 236 233 234 239 242 248 250 251 251 257 263 266 266 276 286 286 288 293 301 304 312 314 326 334
226 226 224 224 226 228 231 233 237 234 236 235 234 237 236 239 236 235 235 236 235 242 237 239 244 249 252 246 251 258 262 266 266 283 282 285 287 297 297 293 301 318 331
218 221 226 222 223 227 228 231 234 235 234 237 235 235 235 234 234 233 234 237 239 244 240 240 247 253 254 252 255 254 257 260 266 287 278 288 287 295 300 290 300 309 319
215 219 221 225 223 224 226 230 235 238 238 234 234 236 235 233 235 236 234 236 240 243 246 247 248 250 256 258 254 258 255 260 261 274 280 288 283 287 293 295 298 300 305
216 218 221 220 226 225 225 229 233 233 236 232 233 235 232 230 230 238 238 242 242 241 242 247 251 251 254 260 263 256 259 262 266 268 278 280 274 284 298 304 304 305 303
214 214 221 224 226 226 227 227 230 233 237 236 235 237 235 234 231 233 237 243 245 243 242 245 249 251 256 261 264 267 258 264 268 270 275 278 270 279 289 296 303 304 307
218 212 219 223 225 225 226 225 228 225 231 231 233 235 238 239 236 238 234 238 241 241 243 243 248 250 257 261 261 263 263 265 271 267 273 271 272 279 279 289 297 298 301
218 214 217 218 223 226 227 224 228 227 228 232 236 234 238 240 241 239 239 238 240 239 244 246 246 245 254 260 261 261 265 269 270 271 272 274 274 280 285 283 292 296 297
220 219 218 217 221 221 224 222 228 228 227 231 229 236 237 239 242 245 241 239 242 243 248 248 249 250 255 260 262 264 270 269 274 273 271 273 273 275 280 286 292 295 295
221 220 220 220 219 221 223 223 226 228 228 230 234 235 238 239 239 243 245 245 244 245 246 249 247 250 254 259 260 263 267 269 269 272 273 274 275 278 279 284 289 293 294
224 223 222 222 220 219 221 224 225 225 228 232 234 235 237 238 239 241 243 247 246 247 247 250 250 249 252 255 257 261 266 269 269 269 268 268 271 274 279 282 283 287 291
228 224 224 223 222 222 223 220 223 224 228 230 231 234 235 238 239 240 241 244 246 249 247 248 249 251 254 256 256 258 260 268 268 265 267 267 270 275 277 277 280 282 284
230 228 225 226 224 223 223 220 223 225 225 228 230 230 232 237 240 242 241 243 245 248 252 253 250 250 253 255 256 259 260 264 265 264 269 271 271 272 275 277 278 280 282
230 229 228 227 227 224 226 223 222 224 228 228 230 230 231 233 235 239 242 242 245 247 251 254 252 251 252 255 254 259 259 264 263 264 266 268 271 272 273 275 276 278 278
231 230 228 228 228 228 225 228 227 226 226 227 227 230 231 230 233 235 241 243 246 247 248 250 254 253 253 255 256 259 258 260 262 263 263 266 268 271 272 273 275 276 277
230 231 229 227 228 229 229 228 229 229 230 227 229 230 233 232 233 236 236 240 242 244 245 248 251 253 254 254 257 258 259 258 263 264 264 266 267 268 271 271 273 274 275
231 231 231 230 229 229 230 231 231 230 231 232 230 229 229 231 234 236 236 235 237 240 243 246 249 251 254 257 257 257 259 262 262 260 265 264 262 266 267 270 272 274 274